Live-Position
3D-Globus wird geladen...
Über OneWeb SL0228
Group: 3 satellites
Beschreibung wird geladen...
Nächste Überflüge
Passes for default location (London). Set your location on the main map for personalized predictions.
Höhenverlauf
Loading altitude history...
No altitude history available
Zweizeiliger Elementsatz
1 48780U 21045P 26127.10027097 -.00000005 00000-0 -48230-4 0 9991
2 48780 87.8984 267.3680 0001790 94.8896 265.2439 13.15548994238920
Epoch: 7. Mai 2026 •
Age: 16 hours
Aktueller Status
Höhe 1210.4 km
Geschwindigkeit 7.25 km/s
Subsatellitenpunkt -21.82°S,
47.98°W
Startdatum 28. Mai 2021
Alter 4.9 years
Typ internet
Startgruppe
Unknown Vehicle •
OneWeb Launch 7 •
36 satellites
OneWeb SL0211
48767
OneWeb SL0223 48768
OneWeb SL0230 48769
OneWeb SL0237 48770
OneWeb SL0235 48771
OneWeb SL0242 48772
OneWeb SL0241 48773
OneWeb SL0243 48774
OneWeb SL0222 48775
OneWeb SL0244 48776
OneWeb SL0247 48777
OneWeb SL0245 48778
OneWeb SL0229 48779
OneWeb SL0232 48781
OneWeb SL0231 48782
OneWeb SL0234 48783
OneWeb SL0238 48784
OneWeb SL0240 48785
OneWeb SL0246 48786
OneWeb SL0210 48787
...and 15 more
Technische Details
Klassifizierung Payload
Masse 148.00 kg
Trockenmasse 140.00 kg
Gesamtmasse 148.00 kg
Länge 1.30 m
Durchmesser 1.00 m
Spannweite 5.00 m
Form Trapezoid+2 pan
Hersteller ONEWUS
Bus-Typ ARROW
Phasenstatus In Orbit
Besitzer/Staat ONEWEBN/UK
Most Searched
Loading...